[[{"header":{"parameterUnit":"m.s-1","parameterCategory":1,"la1":30.2991,"la2":30.254,"lo1":-89.0895,"lo2":-89.0444,"dy":0.0017,"dx":0.0017,"nx":28,"ny":28,"refTime":"2023-09-21T09:00:00:Z","depth":0,"parameterNumber":2,"parameterNumberName":"U-component_of_WINDS"},"data":[0,0,0,0,0,0,0,0,0,0,0,0,0,0,0,0,0,0,0,0,0,0,0,0,0,0,0,0,0,0,0,0,0,0,0,0,0,0,0,0,0,0,0,0,0,0,0,0,0,0,0,0,0,0,0,0,0,0,-4.6058,-4.6059,0,-4.6139,-4.614,-4.6141,-4.6001,-4.5996,-4.5991,-4.5987,-4.6072,-4.6078,-4.6085,0,0,0,0,0,0,0,0,0,0,0,0,0,-4.5784,-4.579,-4.6058,-4.6059,-4.606,-4.6139,-4.614,-4.6141,-4.6001,-4.5996,-4.599,-4.5984,-4.6069,-4.6077,-4.6085,0,0,0,0,0,0,0,0,0,0,0,0,0,-4.5888,-4.5791,-4.6058,-4.6,-4.5996,-4.6139,-4.614,-4.6142,-4.6003,-4.5996,-4.5988,-4.5982,-4.6067,-4.6076,-4.6086,-4.6291,0,0,-4.6117,-4.6121,0,0,0,0,0,0,0,0,-4.5882,-4.5898,-4.6007,-4.6004,-4.5999,-4.6052,-4.6074,-4.6192,-4.6004,-4.6,-4.5986,-4.5978,-4.6071,-4.608,-4.6111,-4.6295,-4.6298,-4.6118,-4.6124,-4.6128,-4.6131,0,0,0,0,0,0,0,-4.5875,-4.5894,-4.609,-4.6009,-4.6004,-4.597,-4.5977,-4.6096,-4.6075,-4.6,-4.599,-4.6001,-4.6068,-4.6102,-4.6112,-4.63,-4.6118,-4.6127,-4.6133,-4.6137,-4.6655,-4.6662,0,0,0,0,0,0,-4.5875,-4.5889,-4.6088,-4.6093,-4.5922,-4.5981,-4.5989,-4.6043,-4.6073,-4.6071,-4.6007,-4.5994,-4.6088,-4.6101,-4.6115,-4.6356,-4.6128,-4.6138,-4.6143,-4.6647,-4.6657,-4.6665,0,0,0,0,0,0,-4.587,-4.5894,-4.6084,-4.5988,-4.601,-4.5993,-4.6055,-4.6048,-4.6082,-4.6078,-4.6074,-4.6046,-4.6083,-4.61,-4.6248,-4.6357,-4.6142,-4.6151,-4.6638,-4.665,-4.6661,-4.6841,0,0,0,0,0,0,-4.5862,-4.5893,-4.597,-4.5991,-4.6015,-4.6217,-4.6062,-4.6055,-4.61,-4.6084,-4.6114,-4.6112,-4.6079,-4.6234,-4.6258,-4.6367,-4.6159,-4.6628,-4.6644,-4.6657,-4.6826,-4.6858,-4.6885,0,0,0,0,0,-4.5853,-4.6018,-4.5975,-4.6,-4.6112,-4.6223,-4.6237,-4.6195,-4.6109,-4.6187,-4.6184,-4.6111,-4.6341,-4.625,-4.6276,-4.639,-4.6621,-4.6639,-4.6656,-4.6812,-4.6851,-4.6884,0,0,0,0,0,0,-4.6011,-4.602,-4.5972,-4.6148,-4.6186,-4.6199,-4.6296,-4.6238,-4.6301,-4.6284,-4.6229,-4.6237,-4.6396,-4.6407,-4.6306,-4.6589,-4.6467,-4.649,-4.6577,-4.6614,-4.6643,-4.6637,-4.6167,0,0,0,0,0,-4.6067,-4.6156,-4.6158,-4.6314,-4.6335,-4.6313,-4.636,-4.6324,-4.6361,-4.6377,-4.6385,-4.6424,-4.6505,-4.656,-4.6634,-4.6826,-4.6831,-4.6917,-4.6947,-4.6971,-4.6993,-4.7096,-4.7134,-4.6723,-4.6722,-4.6722,0,0,-4.6182,-4.6198,-4.6258,-4.6346,-4.6371,-4.6466,-4.6327,-4.6433,-4.6503,-4.6393,-4.6532,-4.654,-4.658,-4.6751,-4.6827,-4.6766,-4.7108,-4.6994,-4.7013,-4.7021,-4.7118,-4.7157,-4.7192,-4.6734,-4.6732,-4.673,0,0,-4.6441,-4.6462,-4.6593,-4.6621,-4.6661,-4.6644,-4.6676,-4.6698,-4.6699,-4.6838,-4.6758,-4.684,-4.6981,-4.7013,-4.7048,-4.7319,-4.7254,-4.7344,-4.7501,-4.7602,-4.7634,-4.7663,-4.776,-4.7796,-4.7365,-4.7366,-4.7366,0,-4.658,-4.6718,-4.6669,-4.678,-4.6822,-4.6726,-4.686,-4.6889,-4.6952,-4.6983,-4.6913,-4.7087,-4.7108,-4.7285,-4.7351,-4.7382,-4.7417,-4.7341,-4.7633,-4.7662,-4.7687,-4.778,-4.7817,-4.7377,-4.7376,-4.7374,-4.7373,0,-4.6887,-4.6985,-4.7087,-4.7149,-4.7202,-4.7324,-4.7294,-4.7353,-4.7313,-4.7305,-4.7448,-4.7469,-4.7546,-4.7585,-4.7547,-4.7757,-4.7718,-4.7642,-4.7518,-4.7738,-4.7824,-4.7859,-4.7392,-4.7388,-4.7385,-4.7382,0,0,-4.7249,-4.7282,-4.732,-4.7347,-4.7383,-4.7458,-4.7576,-4.7651,-4.7703,-4.7749,-4.7847,-4.7969,-4.7898,-4.7938,-4.7902,-4.7991,-4.8206,-4.7904,-4.7904,-4.796,-4.844,-4.8498,-4.854,-4.8162,-4.8169,-4.8174,-4.8437,0,-4.7507,-4.771,-4.7669,-4.7868,-4.7957,-4.7867,-4.797,-4.8004,-4.7999,-4.8075,-4.8069,-4.8157,-4.8057,-4.808,-4.8164,-4.8162,-4.8301,-4.8142,-4.8254,-4.8259,-4.8248,-4.8584,-4.8646,-4.8893,-4.847,-4.8476,-4.848,0,-4.7835,-4.7893,-4.8101,-4.8123,-4.8159,-4.8252,-4.8318,-4.8391,-4.8428,-4.8418,-4.8462,-4.841,-4.8528,-4.8402,-4.8564,-4.8456,-4.8499,-4.8506,-4.8514,-4.8524,-4.8384,-4.8604,-4.897,-4.9008,-4.8532,-4.8528,-4.8524,0,-4.8079,-4.8209,-4.835,-4.8376,-4.8405,-4.8473,-4.8488,-4.8518,-4.8565,-4.8623,-4.8653,-4.8724,-4.8763,-4.8819,-4.8787,-4.8698,-4.8956,-4.8826,-4.8952,-4.8953,-4.9011,-4.9008,-4.939,-4.9038,-4.9037,-4.9036,-4.9036,0,-4.8372,-4.8503,-4.846,-4.8547,-4.8692,-4.8643,-4.8787,-4.8792,-4.8819,-4.8906,-4.8832,-4.8916,-4.8868,-4.8948,-4.8924,-4.9063,-4.9081,-4.9077,-4.9069,-4.9084,-4.9085,-4.9112,-4.9095,-4.9046,-4.9044,-4.9042,-4.904,0,-4.8669,-4.8646,-4.8794,-4.8809,-4.8816,-4.8922,-4.8935,-4.9017,-4.9006,-4.9117,-4.914,-4.9124,-4.9214,-4.9188,-4.9285,-4.9269,-4.9445,-4.9415,-4.9433,-4.9426,-4.9553,-4.9542,-4.9967,-5.0021,-4.9633,-4.9637,-4.964,0,-4.8858,-4.8957,-4.8982,-4.9035,-4.9056,-4.9142,-4.919,-4.9146,-4.9199,-4.9248,-4.9325,-4.9408,-4.9472,-4.9621,-4.9618,-4.9693,-4.9664,-4.9808,-4.9675,-4.9687,-4.9668,-4.9663,-4.9673,-4.9835,-4.984,-4.9844,-4.9846,0,-4.9196,-4.9179,-4.9251,-4.932,-4.938,-4.9432,-4.9477,-4.9525,-4.9484,-4.9548,-4.9638,-4.9689,-4.9788,-4.9872,-4.994,-4.9956,-4.9896,-4.9888,-4.9921,-4.9938,-4.9945,-4.9944,-4.9506,-4.9879,-4.9876,-4.9873,-4.9872,-4.987,-4.9445,-4.9529,-4.956,-4.9643,-4.9672,-4.9717,-4.9794,-4.9793,-4.9868,-4.9945,-4.9915,-5.002,-5.0054,-5.0138,-5.0164,-5.0245,-5.0191,-5.0238,-5.0251,-5.0263,-5.028,-4.9931,-5.0258,-5.0257,-5.0256,-5.0255,-5.0254,0,-4.978,-4.9796,-4.9872,-4.9938,-5.0004,-4.9939,-4.9986,-5.0046,-5.0139,-5.0175,-5.024,-5.0345,-5.0427,-5.0431,-5.0507,-5.0572,-5.0546,-5.0593,-5.0589,-5.0594,-5.0324,-5.0288,-5.0613,-5.0613,-5.0613,-5.0613,-5.0613,-5.0613,-4.9962,-5.01,-5.0088,-5.024,-5.0255,-5.0357,-5.0389,-5.043,-5.0459,-5.0579,-5.0646,-5.0648,-5.0672,-5.0749,-5.0821,-5.082,-5.0852,-5.091,-5.0899,-5.0648,-5.0612,-5.0578,-5.0544,-5.0918,-5.0918,-5.1162,-5.1164,-5.1166]},{"header":{"parameterUnit":"m.s-1","parameterCategory":1,"la1":30.2991,"la2":30.254,"lo1":-89.0895,"lo2":-89.0444,"dy":0.0017,"dx":0.0017,"nx":28,"ny":28,"refTime":"2023-09-21T09:00:00:Z","depth":0,"parameterNumber":3,"parameterNumberName":"V-component_of_WINDS"},"data":[0,0,0,0,0,0,0,0,0,0,0,0,0,0,0,0,0,0,0,0,0,0,0,0,0,0,0,0,0,0,0,0,0,0,0,0,0,0,0,0,0,0,0,0,0,0,0,0,0,0,0,0,0,0,0,0,0,0,-3.2876,-3.2876,0,-3.2884,-3.2884,-3.2884,-3.2847,-3.2846,-3.2845,-3.2844,-3.2852,-3.2853,-3.2854,0,0,0,0,0,0,0,0,0,0,0,0,0,-3.2826,-3.2827,-3.2876,-3.2876,-3.2876,-3.2884,-3.2884,-3.2884,-3.2847,-3.2846,-3.2845,-3.2843,-3.2851,-3.2853,-3.2854,0,0,0,0,0,0,0,0,0,0,0,0,0,-3.2842,-3.2828,-3.2876,-3.2859,-3.2857,-3.2884,-3.2884,-3.2884,-3.2848,-3.2846,-3.2844,-3.2843,-3.2851,-3.2852,-3.2854,-3.2898,0,0,-3.286,-3.286,0,0,0,0,0,0,0,0,-3.2842,-3.2844,-3.2861,-3.286,-3.2858,-3.2863,-3.2869,-3.2889,-3.2848,-3.2851,-3.2844,-3.2842,-3.2857,-3.2858,-3.2863,-3.2898,-3.2898,-3.286,-3.2861,-3.2862,-3.2862,0,0,0,0,0,0,0,-3.284,-3.2844,-3.2879,-3.2861,-3.286,-3.285,-3.285,-3.2873,-3.2863,-3.2851,-3.2848,-3.285,-3.2855,-3.2861,-3.2863,-3.2899,-3.286,-3.2861,-3.2863,-3.2863,-3.2967,-3.2968,0,0,0,0,0,0,-3.2842,-3.2843,-3.2879,-3.2879,-3.2846,-3.2852,-3.2853,-3.2863,-3.2863,-3.2861,-3.2851,-3.2848,-3.2859,-3.2861,-3.2863,-3.2912,-3.2862,-3.2863,-3.2864,-3.2965,-3.2967,-3.2969,0,0,0,0,0,0,-3.2841,-3.2845,-3.2879,-3.286,-3.2864,-3.2855,-3.2867,-3.2864,-3.287,-3.2863,-3.2861,-3.2859,-3.2858,-3.286,-3.2889,-3.2912,-3.2864,-3.2866,-3.2963,-3.2966,-3.2968,-3.3011,0,0,0,0,0,0,-3.284,-3.2845,-3.2863,-3.2861,-3.2865,-3.2905,-3.2868,-3.2865,-3.2873,-3.2869,-3.2869,-3.2868,-3.2857,-3.2886,-3.2891,-3.2913,-3.2867,-3.2961,-3.2964,-3.2967,-3.3008,-3.3015,-3.3021,0,0,0,0,0,-3.2838,-3.2875,-3.2864,-3.2868,-3.2887,-3.2907,-3.2909,-3.2895,-3.2875,-3.2892,-3.2887,-3.2868,-3.2909,-3.2889,-3.2894,-3.2918,-3.296,-3.2963,-3.2967,-3.3005,-3.3014,-3.3021,0,0,0,0,0,0,-3.288,-3.2875,-3.2862,-3.29,-3.2904,-3.29,-3.2921,-3.2905,-3.2915,-3.2911,-3.2894,-3.2894,-3.2925,-3.2924,-3.2903,-3.2958,-3.293,-3.2935,-3.2958,-3.2966,-3.2972,-3.2972,-3.2869,0,0,0,0,0,-3.2893,-3.2911,-3.2905,-3.2939,-3.2941,-3.2931,-3.2939,-3.2928,-3.2932,-3.2933,-3.2931,-3.2934,-3.2947,-3.2957,-3.2969,-3.3008,-3.3006,-3.3026,-3.3033,-3.3038,-3.3042,-3.306,-3.3068,-3.2981,-3.2981,-3.2981,0,0,-3.2922,-3.2921,-3.2933,-3.2947,-3.2949,-3.2966,-3.2933,-3.2953,-3.2965,-3.2936,-3.2962,-3.296,-3.2963,-3.2996,-3.3011,-3.2997,-3.3066,-3.3043,-3.3047,-3.3048,-3.3065,-3.3073,-3.308,-3.2984,-3.2983,-3.2983,0,0,-3.2982,-3.2984,-3.3011,-3.3013,-3.3016,-3.3008,-3.3015,-3.3013,-3.3011,-3.3037,-3.3014,-3.3028,-3.3052,-3.3055,-3.3059,-3.3117,-3.3099,-3.3121,-3.3156,-3.3174,-3.3181,-3.3187,-3.3206,-3.3213,-3.3126,-3.3126,-3.3126,0,-3.3017,-3.3042,-3.3027,-3.3048,-3.3054,-3.3028,-3.3054,-3.3057,-3.3064,-3.3068,-3.3052,-3.308,-3.308,-3.3112,-3.3126,-3.3131,-3.3137,-3.3121,-3.3181,-3.3187,-3.3192,-3.321,-3.3217,-3.3128,-3.3128,-3.3128,-3.3128,0,-3.3084,-3.3102,-3.3123,-3.3129,-3.3138,-3.3162,-3.3149,-3.3159,-3.3146,-3.314,-3.3165,-3.3164,-3.3175,-3.3182,-3.317,-3.3211,-3.3202,-3.3184,-3.3156,-3.3203,-3.322,-3.3226,-3.3132,-3.3131,-3.313,-3.313,0,0,-3.3172,-3.3168,-3.3176,-3.3177,-3.3177,-3.319,-3.3212,-3.3221,-3.3229,-3.3235,-3.3251,-3.3271,-3.3253,-3.3258,-3.3246,-3.3262,-3.3306,-3.3242,-3.3241,-3.3252,-3.3349,-3.3361,-3.337,-3.3294,-3.3295,-3.3296,-3.3348,0,-3.323,-3.3266,-3.3252,-3.3289,-3.3304,-3.3278,-3.3297,-3.3298,-3.3292,-3.3304,-3.3297,-3.331,-3.3287,-3.3289,-3.3304,-3.3297,-3.3325,-3.3294,-3.3308,-3.3309,-3.3307,-3.3379,-3.3393,-3.3441,-3.3354,-3.3355,-3.3356,0,-3.3302,-3.3309,-3.3347,-3.3342,-3.3348,-3.3365,-3.3371,-3.3383,-3.3383,-3.3377,-3.3382,-3.3366,-3.3385,-3.3357,-3.3383,-3.3362,-3.3367,-3.3364,-3.3366,-3.3366,-3.3335,-3.3379,-3.3457,-3.3463,-3.3366,-3.3366,-3.3365,0,-3.336,-3.3379,-3.3404,-3.3406,-3.3401,-3.3413,-3.3412,-3.3411,-3.3416,-3.3422,-3.3425,-3.3433,-3.3437,-3.3443,-3.3429,-3.341,-3.3456,-3.3427,-3.345,-3.3451,-3.3461,-3.346,-3.3539,-3.3466,-3.3466,-3.3466,-3.3466,0,-3.3425,-3.3449,-3.3429,-3.3445,-3.347,-3.3453,-3.3478,-3.3474,-3.3473,-3.3486,-3.3464,-3.3477,-3.3458,-3.3469,-3.3458,-3.3479,-3.3482,-3.3477,-3.3474,-3.3478,-3.3479,-3.3481,-3.3476,-3.3468,-3.3467,-3.3467,-3.3467,0,-3.3494,-3.3482,-3.3507,-3.35,-3.3498,-3.3518,-3.3511,-3.3524,-3.3516,-3.3532,-3.3535,-3.3523,-3.3533,-3.352,-3.353,-3.3523,-3.3552,-3.3544,-3.3551,-3.3549,-3.3572,-3.357,-3.3654,-3.3663,-3.3586,-3.3587,-3.3587,0,-3.3536,-3.3554,-3.3548,-3.3555,-3.3554,-3.3566,-3.3571,-3.3554,-3.3561,-3.3561,-3.3573,-3.3582,-3.3589,-3.3607,-3.3598,-3.3605,-3.3597,-3.3626,-3.3598,-3.3601,-3.3595,-3.3594,-3.3594,-3.3631,-3.3632,-3.3633,-3.3633,0,-3.3612,-3.3604,-3.3612,-3.3618,-3.3625,-3.3628,-3.3631,-3.3637,-3.3619,-3.3627,-3.3637,-3.3642,-3.3651,-3.366,-3.3664,-3.3662,-3.3644,-3.3642,-3.3648,-3.3652,-3.3655,-3.3652,-3.3566,-3.364,-3.364,-3.3639,-3.3639,-3.3639,-3.3667,-3.3681,-3.3678,-3.3687,-3.3687,-3.3689,-3.37,-3.3692,-3.3701,-3.3706,-3.3695,-3.3708,-3.3706,-3.3709,-3.3709,-3.3718,-3.3705,-3.3714,-3.3715,-3.3718,-3.372,-3.3654,-3.3719,-3.3718,-3.3718,-3.3718,-3.3718,0,-3.374,-3.3736,-3.3745,-3.3748,-3.3754,-3.3737,-3.3737,-3.3744,-3.3756,-3.3755,-3.3761,-3.3771,-3.3779,-3.377,-3.3776,-3.3785,-3.3776,-3.3786,-3.3785,-3.3784,-3.3732,-3.3726,-3.3793,-3.3793,-3.3793,-3.3793,-3.3793,-3.3793,-3.3778,-3.3799,-3.3791,-3.3811,-3.3807,-3.3819,-3.382,-3.3821,-3.382,-3.3833,-3.3839,-3.3833,-3.3828,-3.3833,-3.3838,-3.3835,-3.3838,-3.385,-3.3845,-3.3796,-3.3788,-3.3781,-3.3775,-3.3851,-3.3852,-3.3896,-3.3896,-3.3897]}]]